Skip Page Navigation
NASA JPL Caltech
NASA Logo - Jet Propulsion Laboratory + View the NASA Portal
+ Center for Near-Earth Object Studies
JPL Home Earth Solar System Stars & Galaxies Technology
JPL Solar System Dynamics
BODIES ORBITS EPHEMERIDES TOOLS PHYSICAL DATA DISCOVERY FAQ SITE MAP
IMPORTANT: The SSD Announcement email list is now available. Major changes are coming in the near future, including possible hostname and/or URL changes. To be notified of such changes, subscribe to this email list.

Please visit this page for more details.


JPL Small-Body Database Browser
Search: [ help ]  
46137 (2001 FN56)
Classification: Main-belt Asteroid          SPK-ID: 2046137
Ephemeris | Orbit Diagram | Orbital Elements | Mission Design | Physical Parameters | Discovery Circumstances | Close-Approach Data ]

[ show orbit diagram ]
Orbital Elements at Epoch 2458600.5 (2019-Apr-27.0) TDB
Reference: JPL 30 (heliocentric ecliptic J2000)
 Element Value Uncertainty (1-sigma)   Units 
e .0377253542455954 3.8031e-08  
a 3.189575544880752 2.8131e-08 au
q 3.069247677557037 1.2316e-07 au
i 21.63181077703249 5.9254e-06 deg
node 202.0700225685245 1.2348e-05 deg
peri 117.4151876479998 8.4036e-05 deg
M 313.2967683610756 8.4502e-05 deg
tp 2458870.424433180724
(2020-Jan-21.92443318)
0.00048955 TDB
period 2080.643941222959
5.70
2.7526e-05
7.536e-08
d
yr
n .1730233572729409 2.289e-09 deg/d
Q 3.309903412204466 2.9192e-08 au
  Orbit Determination Parameters
   # obs. used (total)      986  
   data-arc span      10302 days (28.21 yr)  
   first obs. used      1991-07-17  
   last obs. used      2019-09-30  
   planetary ephem.      DE431  
   SB-pert. ephem.      SB431-N16  
   condition code      0  
   norm. resid. RMS      .52934  
   source      ORB  
   producer      Otto Matic  
   solution date      2019-Nov-07 06:25:33  

Additional Information
 Earth MOID = 2.10637 au 
 Jupiter MOID = 1.82253 au 
 T_jup = 3.086 
[ show covariance matrix ]

Ephemeris | Orbit Diagram | Orbital Elements | Mission Design | Physical Parameters | Discovery Circumstances | Close-Approach Data ]

Physical Parameter Table
Parameter Symbol Value Units Sigma Reference Notes
absolute magnitude H 13.4   n/a MPO359046  
diameter diameter 11.525 km 0.345 urn:nasa:pds:neowise_diameters_albedos::2.0[mainbelt] (http://adsabs.harvard.edu/abs/2011ApJ...741...68M)  
geometric albedo albedo 0.058   0.009 urn:nasa:pds:neowise_diameters_albedos::2.0[mainbelt] (http://adsabs.harvard.edu/abs/2011ApJ...741...68M)  

46137 (2001 FN56)          Discovered 2001-Mar-23 by LINEAR at Socorro
Reference: 20020822/Numbers.arcLast Updated: 2004-04-19

[ hide close-approach data ]
Close-Approach Data   ...sorted by Date/Time (TDB)
Date/Time (TDB) Time Uncertainty
(days_HH:MM)
Body Nominal Distance (au) Minimum Distance (au) Maximum Distance (au) V-relative (km/s) V-infinity (km/s) JD (TDB) Time Uncertainty (minutes) Semi-major axis (km) Semi-minor axis (km) range-LOV angle (deg) N-sigma BP Orbit Ref. Reference Modified
1964-Apr-19 10:25 00:02 Jupiter 1.88663762580212 1.88663705099802 1.88663820060778 6.84266065157337 6.77673130972617 2438504.933809134 1.55177737814573 241.557391453019 26.4233798014182 87.5377726613877 3794516.81227944 T 30 CATAB v2.0f-lin.ifort 2019-Nov-07 06:25:40 2019-Nov-07 06:25
1975-May-10 06:56 00:01 Jupiter 1.97978338451832 1.97978256166138 1.97978420737898 6.75263396282481 6.68897552134005 2442542.788753507 1.25006449363795 177.582922086574 24.6041216282275 -79.2881721342398 3893090.24666058 T 30 CATAB v2.0f-lin.ifort 2019-Nov-07 06:25:40 2019-Nov-07 06:25
2106-Jul-02 06:58 00:03 Jupiter 1.88555960011428 1.88555904097412 1.88556015926162 6.87739409126262 6.81176325001768 2490442.790592438 3.13202154666214 485.62922300438 25.3945875268166 88.7306199933971 3891399.79302432 T 30 CATAB v2.0f-lin.ifort 2019-Nov-07 06:25:40 2019-Nov-07 06:25
Ephemeris | Orbit Diagram | Orbital Elements | Mission Design | Physical Parameters | Discovery Circumstances | Close-Approach Data ]
ABOUT SSD CREDITS/AWARDS PRIVACY/COPYRIGHT GLOSSARY LINKS
FirstGov 2019-Dec-05 15:19 UT
(server date/time)  
NASA Home Page
Site Manager:   Ryan S. Park
Webmaster  Alan B. Chamberlin